W4SKW Weather Reports


time (UTC)temp
C
wind
direction
speed
KPH
gust
KPH
rain 1hr
cm
rain 24hr
cm
rain mn
cm
humidity
%
barometer
mb
20260506132353 18 242 0.0 0.0 0.00 0.00 0.00 88 1015.4
20260506131851 18 229 0.0 0.0 0.00 0.00 0.00 88 1015.1
20260506131347 18 248 0.0 0.0 0.00 0.00 0.00 87 1015.4
20260506130845 18 231 0.0 0.0 0.00 0.00 0.00 88 1015.0
20260506130341 18 230 0.0 0.0 0.00 0.00 0.00 88 1015.0
20260506125839 18 232 0.0 0.0 0.00 0.00 0.00 88 1015.3
20260506125337 18 232 0.0 0.0 0.00 0.00 0.00 88 1015.3
20260506124835 18 232 0.0 0.0 0.00 0.00 0.00 88 1015.0
20260506124332 18 231 0.0 0.0 0.00 0.00 0.00 88 1015.1
20260506123829 18 231 0.0 0.0 0.00 0.00 0.00 88 1015.1
20260506123328 18 241 0.0 0.0 0.00 0.00 0.00 87 1015.0
20260506122825 18 241 0.0 0.0 0.00 0.00 0.00 88 1014.6
20260506122321 17 236 0.0 0.0 0.00 0.00 0.00 88 1014.4
20260506121820 17 236 0.0 0.0 0.00 0.00 0.00 88 1014.4
20260506121316 17 233 0.0 0.0 0.00 0.00 0.00 88 1014.7
20260506120814 17 240 0.0 0.0 0.00 0.00 0.00 88 1014.8
20260506120311 17 239 0.0 0.0 0.00 0.00 0.00 88 1014.5
20260506115809 17 238 0.0 0.0 0.00 0.00 0.00 88 1014.4
20260506115307 17 238 0.0 0.0 0.00 0.00 0.00 87 1014.3
20260506114804 17 238 0.0 0.0 0.00 0.00 0.00 87 1014.4
20260506114302 17 238 0.0 0.0 0.00 0.00 0.00 88 1014.5
20260506113800 17 238 0.0 0.0 0.00 0.00 0.00 88 1014.5
20260506113257 17 237 0.0 0.0 0.00 0.00 0.00 87 1014.5
20260506112552 17 244 0.0 0.0 0.00 0.00 0.00 87 1014.4
20260506112050 17 244 0.0 0.0 0.00 0.00 0.00 87 1014.4
20260506111547 17 244 0.0 0.0 0.00 0.00 0.00 88 1014.1
20260506111044 17 244 0.0 0.0 0.00 0.00 0.00 88 1014.1
20260506110542 17 244 0.0 0.0 0.00 0.00 0.00 88 1014.1
20260506110039 17 244 0.0 0.0 0.00 0.00 0.00 87 1014.0
20260506105535 17 244 0.0 0.0 0.00 0.00 0.00 87 1013.9
20260506105032 17 244 0.0 0.0 0.00 0.00 0.00 87 1013.7
20260506104530 17 244 0.0 0.0 0.00 0.00 0.00 87 1013.7
20260506104028 17 246 0.0 0.0 0.00 0.00 0.00 87 1013.6
20260506103525 17 246 0.0 0.0 0.00 0.00 0.00 87 1013.6
20260506103021 17 246 0.0 0.0 0.00 0.00 0.00 87 1013.6
20260506102520 17 246 0.0 0.0 0.00 0.00 0.00 86 1013.5
20260506102012 17 246 0.0 0.0 0.00 0.00 0.00 86 1013.6
20260506101508 17 246 0.0 0.0 0.00 0.00 0.00 86 1013.6
20260506101005 17 246 0.0 0.0 0.00 0.00 0.00 86 1013.6
20260506100503 17 246 0.0 0.0 0.00 0.00 0.00 86 1013.7
20260506100001 17 246 0.0 0.0 0.00 0.00 0.00 85 1013.7
20260506095500 17 246 0.0 0.0 0.00 0.00 0.00 85 1013.5
20260506094955 17 246 0.0 0.0 0.00 0.00 0.00 85 1013.6
20260506094454 17 246 0.0 0.0 0.00 0.00 0.00 85 1013.5
20260506093951 17 246 0.0 0.0 0.00 0.00 0.00 85 1013.4
20260506093449 17 246 0.0 0.0 0.00 0.00 0.00 85 1013.2
20260506092947 17 247 0.0 0.0 0.00 0.00 0.00 85 1013.2
20260506092444 17 247 0.0 0.0 0.00 0.00 0.00 84 1013.3
20260506091940 17 247 0.0 0.0 0.00 0.00 0.00 84 1013.1
20260506091439 17 247 0.0 0.0 0.00 0.00 0.00 84 1013.1
20260506090936 17 247 0.0 0.0 0.00 0.00 0.00 84 1013.1
20260506090434 17 247 0.0 0.0 0.00 0.00 0.00 84 1013.2
20260506085930 17 247 0.0 0.0 0.00 0.00 0.00 84 1013.0
20260506085427 16 247 0.0 0.0 0.00 0.00 0.00 84 1012.9
20260506084922 16 247 0.0 0.0 0.00 0.00 0.00 83 1013.1
20260506084419 16 247 0.0 0.0 0.00 0.00 0.00 84 1013.0
20260506083910 16 247 0.0 0.0 0.00 0.00 0.00 85 1012.6
20260506083408 16 247 0.0 0.0 0.00 0.00 0.00 85 1012.7
20260506082905 16 247 0.0 0.0 0.00 0.00 0.00 85 1013.0
20260506082401 16 246 0.0 0.0 0.00 0.00 0.00 85 1013.0
20260506081856 16 246 0.0 0.0 0.00 0.00 0.00 84 1013.0
20260506081338 16 246 0.0 0.0 0.00 0.00 0.00 84 1012.9
20260506080835 16 246 0.0 0.0 0.00 0.00 0.00 84 1012.9
20260506080331 16 247 0.0 0.0 0.00 0.00 0.00 84 1013.1
20260506073518 16 246 0.0 0.0 0.00 0.00 0.00 84 1012.7
20260506073015 16 246 0.0 0.0 0.00 0.00 0.00 84 1012.8
20260506072512 16 246 0.0 0.0 0.00 0.00 0.00 83 1013.0
20260506072010 16 246 0.0 0.0 0.00 0.00 0.00 83 1013.1
20260506071508 16 247 0.0 0.0 0.00 0.00 0.00 82 1013.2
20260506071005 16 247 0.0 0.0 0.00 0.00 0.00 82 1013.2
20260506070502 16 246 0.0 0.0 0.00 0.00 0.00 82 1013.2
20260506062439 16 246 0.0 0.0 0.00 0.00 0.00 80 1013.8
20260506061935 16 245 0.0 0.0 0.00 0.00 0.00 80 1013.7
20260506061432 16 245 0.0 0.0 0.00 0.00 0.00 80 1013.8
20260506060930 17 245 0.0 0.0 0.00 0.00 0.00 80 1013.8
20260506060428 17 245 0.0 0.0 0.00 0.00 0.00 80 1013.8
20260506051244 17 245 0.0 0.0 0.00 0.00 0.00 81 1014.2
20260506050742 17 245 0.0 0.0 0.00 0.00 0.00 81 1013.8
20260506050239 17 245 0.0 0.0 0.00 0.00 0.00 80 1013.9
20260506044730 18 245 0.0 0.0 0.00 0.00 0.00 79 1014.0
20260506044227 18 246 0.0 0.0 0.00 0.00 0.00 79 1014.2
20260506043724 18 246 0.0 0.0 0.00 0.00 0.00 77 1014.3
20260506043221 18 245 0.0 0.0 0.00 0.00 0.00 78 1014.1
20260506042149 18 245 0.0 0.0 0.00 0.00 0.00 78 1013.9
20260506041642 18 245 0.0 0.0 0.00 0.00 0.00 78 1013.9
20260506041138 18 245 0.0 0.0 0.00 0.00 0.00 78 1014.1
20260506040635 18 245 0.0 0.0 0.00 0.00 0.00 78 1014.3
20260506040127 18 245 0.0 0.0 0.00 0.00 0.00 76 1014.4
20260506035624 18 245 0.0 0.0 0.00 0.00 0.00 76 1014.4
20260506035119 18 245 0.0 0.0 0.00 0.00 0.00 76 1014.3
20260506034616 18 245 0.0 0.0 0.00 0.00 0.00 75 1014.4
20260506034108 18 245 0.0 0.0 0.00 0.00 0.00 75 1014.2
20260506033606 18 246 0.0 0.0 0.00 0.00 0.00 74 1013.9
20260506033103 18 246 0.0 0.0 0.00 0.00 0.00 75 1013.7
20260506032600 18 246 0.0 0.0 0.00 0.00 0.00 75 1013.7
20260506032056 18 246 0.0 0.0 0.00 0.00 0.00 76 1013.5
20260506031554 18 246 0.0 0.0 0.00 0.00 0.00 75 1013.7
20260506031051 18 246 0.0 0.0 0.00 0.00 0.00 75 1013.7
20260506030549 18 246 0.0 0.0 0.00 0.00 0.00 76 1013.7
20260506030046 18 246 0.0 0.0 0.00 0.00 0.00 74 1014.1
20260506025543 18 246 0.0 0.0 0.00 0.00 0.00 76 1014.2
20260506025038 18 246 0.0 0.0 0.00 0.00 0.00 76 1014.3
20260506024536 18 246 0.0 0.0 0.00 0.00 0.00 75 1014.2
20260506024032 18 246 0.0 0.0 0.00 0.00 0.00 74 1014.2
20260506023528 18 246 0.0 0.0 0.00 0.00 0.00 75 1014.2
20260506023026 18 246 0.0 0.0 0.00 0.00 0.00 74 1014.3
20260506022523 18 246 0.0 0.0 0.00 0.00 0.00 71 1014.1
20260506022020 18 246 0.0 0.0 0.00 0.00 0.00 72 1014.1
20260506021517 18 246 0.0 0.0 0.00 0.00 0.00 72 1013.8
20260506020743 18 243 0.0 0.0 0.00 0.00 0.00 73 1013.7
20260506020241 18 243 0.0 0.0 0.00 0.00 0.00 73 1013.7
20260506015738 18 243 0.0 0.0 0.00 0.00 0.00 73 1014.0
20260506015235 18 243 0.0 0.0 0.00 0.00 0.00 72 1013.9
20260506014732 18 243 0.0 0.0 0.00 0.00 0.00 70 1013.9
20260506014228 18 242 0.0 0.0 0.00 0.00 0.00 71 1013.8
20260506013726 18 240 0.0 0.0 0.00 0.00 0.00 72 1013.9
20260506013223 18 238 0.0 0.0 0.00 0.00 0.00 73 1013.7
20260506012719 19 238 0.0 0.0 0.00 0.00 0.00 72 1013.8
20260506012216 18 243 0.0 0.0 0.00 0.00 0.00 69 1013.8
20260506011604 19 241 0.0 0.0 0.00 0.00 0.00 70 1013.8
20260506011059 19 241 0.0 0.0 0.00 0.00 0.00 70 1013.8
20260506010554 19 241 0.0 0.0 0.00 0.00 0.00 69 1013.5
20260506010050 19 240 0.0 0.0 0.00 0.00 0.00 71 1013.6
20260506005547 19 240 0.0 0.0 0.00 0.00 0.00 70 1013.6
20260506005043 19 244 0.0 0.0 0.00 0.00 0.00 66 1013.5
20260506004541 19 244 0.0 0.0 0.00 0.00 0.00 66 1013.5
20260506004037 19 244 0.0 0.0 0.00 0.00 0.00 66 1013.5
20260506003533 19 242 0.0 0.0 0.00 0.00 0.00 70 1013.5
20260506003029 19 243 0.0 0.0 0.00 0.00 0.00 69 1013.5
20260506002520 20 242 0.0 0.0 0.00 0.00 0.00 67 1013.3
20260506002016 20 242 0.0 0.0 0.00 0.00 0.00 64 1013.3
20260506001513 20 241 0.0 0.0 0.00 0.00 0.00 64 1013.4
20260506001010 20 240 0.0 0.0 0.00 0.00 0.00 65 1013.5
20260506000508 20 232 0.0 0.0 0.00 0.00 0.00 63 1013.4
20260506000005 20 230 0.0 0.0 0.00 0.00 0.00 64 1013.4
20260505235503 20 225 0.0 0.0 0.00 0.00 0.00 62 1013.5
20260505234959 20 229 0.0 0.0 0.00 0.00 0.00 62 1013.5
20260505234456 21 231 0.0 0.0 0.00 0.00 0.00 62 1013.6
20260505233953 21 244 0.0 0.0 0.00 0.00 0.00 60 1013.5
20260505233451 21 226 0.0 0.0 0.00 0.00 0.00 62 1013.5
20260505232947 21 220 0.0 0.0 0.00 0.00 0.00 61 1013.7
20260505231744 22 203 0.0 0.0 0.00 0.00 0.00 60 1013.8
20260505231243 22 203 0.0 0.0 0.00 0.00 0.00 60 1013.8
20260505230741 22 267 0.0 0.0 0.00 0.00 0.00 64 1013.5
20260505230237 22 281 0.0 0.0 0.00 0.00 0.00 59 1013.7
20260505225734 22 237 0.0 0.0 0.00 0.00 0.00 61 1013.5
20260505225231 23 257 0.0 0.0 0.00 0.00 0.00 50 1013.5
20260505224726 22 227 0.0 0.0 0.00 0.00 0.00 59 1013.5
20260505224224 22 241 0.0 0.0 0.00 0.00 0.00 59 1013.6
20260505223722 22 223 0.0 0.0 0.00 0.00 0.00 62 1013.6
20260505223218 21 221 0.0 0.0 0.00 0.00 0.00 64 1013.9
20260505222714 22 235 0.0 0.0 0.00 0.00 0.00 60 1013.9
20260505222210 22 234 0.0 0.0 0.00 0.00 0.00 59 1013.8
20260505221708 22 235 0.0 0.0 0.00 0.00 0.00 62 1013.7
20260505221204 22 222 0.0 0.0 0.00 0.00 0.00 62 1013.5
20260505220701 22 222 0.0 0.0 0.00 0.00 0.00 62 1013.5
20260505220159 22 242 0.0 0.0 0.00 0.00 0.00 64 1013.7
20260505215656 22 219 0.0 0.0 0.00 0.00 0.00 59 1013.9
20260505215154 22 221 0.0 0.0 0.00 0.00 0.00 58 1013.9
20260505214652 22 215 0.0 0.0 0.00 0.00 0.00 58 1014.0
20260505214149 22 204 0.0 0.0 0.00 0.00 0.00 62 1014.0
20260505213646 22 254 0.0 0.0 0.00 0.00 0.00 58 1014.2
20260505213143 22 293 0.0 0.0 0.00 0.00 0.00 53 1014.1
20260505212638 22 222 0.0 0.0 0.00 0.00 0.00 63 1013.9
20260505212136 23 260 0.0 0.0 0.00 0.00 0.00 45 1014.0
20260505211633 23 236 0.0 0.0 0.00 0.00 0.00 61 1013.9
20260505211131 23 207 0.0 0.0 0.00 0.00 0.00 57 1013.9
20260505210627 24 335 1.6 4.8 0.00 0.00 0.00 48 1013.6
20260505210124 24 281 0.0 0.0 0.00 0.00 0.00 46 1013.7
20260505205621 25 282 0.0 1.6 0.00 0.00 0.00 44 1013.7
20260505205119 25 94 0.0 0.0 0.00 0.00 0.00 57 1013.9
20260505204616 25 261 1.6 3.2 0.00 0.00 0.00 42 1014.0
20260505204114 25 244 6.4 6.4 0.00 0.00 0.00 42 1014.1
20260505203610 25 330 6.4 6.4 0.00 0.00 0.00 42 1014.1
20260505203107 26 301 1.6 4.8 0.00 0.00 0.00 42 1014.2
20260505202603 26 349 6.4 9.7 0.00 0.00 0.00 42 1014.1
20260505202059 26 270 3.2 4.8 0.00 0.00 0.00 39 1014.4
20260505201556 26 270 3.2 4.8 0.00 0.00 0.00 39 1014.4
20260505201054 26 304 0.0 0.0 0.00 0.00 0.00 41 1014.3
20260505200551 26 258 1.6 3.2 0.00 0.00 0.00 40 1014.4
20260505200048 26 292 3.2 3.2 0.00 0.00 0.00 41 1014.6
20260505195544 26 288 0.0 1.6 0.00 0.00 0.00 44 1014.5
20260505195042 26 263 1.6 3.2 0.00 0.00 0.00 41 1014.6
20260505194539 26 254 0.0 1.6 0.00 0.00 0.00 58 1014.6
20260505194034 26 254 0.0 0.0 0.00 0.00 0.00 43 1014.7
20260505193532 26 320 3.2 6.4 0.00 0.00 0.00 45 1014.6
20260505193029 26 255 0.0 0.0 0.00 0.00 0.00 47 1014.7
20260505192527 26 250 6.4 6.4 0.00 0.00 0.00 44 1014.8
20260505192024 26 317 6.4 6.4 0.00 0.00 0.00 43 1014.9
20260505191517 26 317 6.4 6.4 0.00 0.00 0.00 43 1014.9
20260505191014 26 274 3.2 4.8 0.00 0.00 0.00 40 1015.0
20260505190509 25 330 4.8 4.8 0.00 0.00 0.00 43 1015.0
20260505190004 26 257 0.0 0.0 0.00 0.00 0.00 39 1015.2
20260505185456 26 238 0.0 0.0 0.00 0.00 0.00 37 1015.3
20260505184952 26 296 3.2 6.4 0.00 0.00 0.00 40 1015.3
20260505184449 25 281 1.6 3.2 0.00 0.00 0.00 49 1015.3
20260505183945 25 281 1.6 3.2 0.00 0.00 0.00 49 1015.3
20260505183443 26 323 3.2 4.8 0.00 0.00 0.00 44 1015.2
20260505182939 26 281 1.6 4.8 0.00 0.00 0.00 45 1015.2
20260505182437 26 267 0.0 0.0 0.00 0.00 0.00 51 1015.2
20260505181932 26 299 3.2 4.8 0.00 0.00 0.00 45 1015.6
20260505181430 25 301 0.0 1.6 0.00 0.00 0.00 45 1015.4
20260505180927 25 337 0.0 0.0 0.00 0.00 0.00 48 1015.6
20260505180423 25 359 1.6 4.8 0.00 0.00 0.00 46 1015.3
20260505175920 26 258 0.0 0.0 0.00 0.00 0.00 51 1015.3
20260505175416 25 215 1.6 3.2 0.00 0.00 0.00 55 1015.3
20260505174913 25 280 0.0 1.6 0.00 0.00 0.00 51 1015.7
20260505174410 25 341 6.4 9.7 0.00 0.00 0.00 47 1015.8
20260505173907 25 290 4.8 6.4 0.00 0.00 0.00 48 1016.0
20260505173403 25 255 1.6 3.2 0.00 0.00 0.00 48 1016.2
20260505172900 25 191 0.0 0.0 0.00 0.00 0.00 53 1016.6
20260505172358 25 191 0.0 0.0 0.00 0.00 0.00 53 1016.6
20260505171857 24 225 0.0 0.0 0.00 0.00 0.00 49 1016.5
20260505171354 24 268 0.0 1.6 0.00 0.00 0.00 50 1016.6
20260505170850 25 307 1.6 3.2 0.00 0.00 0.00 47 1016.6
20260505170348 25 93 0.0 0.0 0.00 0.00 0.00 50 1016.7
20260505165843 24 257 3.2 4.8 0.00 0.00 0.00 49 1016.7
20260505165339 24 257 3.2 4.8 0.00 0.00 0.00 49 1016.7
20260505164835 24 279 9.7 11.3 0.00 0.00 0.00 52 1016.7
20260505164332 23 239 6.4 12.9 0.00 0.00 0.00 50 1016.8
20260505163830 24 290 1.6 3.2 0.00 0.00 0.00 55 1016.7
20260505163328 24 287 0.0 1.6 0.00 0.00 0.00 54 1016.8
20260505162827 23 180 0.0 0.0 0.00 0.00 0.00 52 1016.8
20260505162322 23 333 0.0 0.0 0.00 0.00 0.00 52 1016.7
20260505161820 23 310 0.0 1.6 0.00 0.00 0.00 54 1016.8
20260505161317 22 327 1.6 3.2 0.00 0.00 0.00 60 1016.5
20260505160814 22 327 1.6 3.2 0.00 0.00 0.00 60 1016.5
20260505160312 22 236 0.0 0.0 0.00 0.00 0.00 62 1016.5
20260505153250 21 343 1.6 3.2 0.00 0.00 0.00 64 1017.1
20260505152747 20 265 0.0 0.0 0.00 0.00 0.00 65 1017.1
20260505152244 20 301 3.2 3.2 0.00 0.00 0.00 67 1017.3
20260505151738 20 266 0.0 0.0 0.00 0.00 0.00 67 1017.0
20260505151236 20 3 0.0 0.0 0.00 0.00 0.00 66 1016.9
20260505150732 20 3 0.0 0.0 0.00 0.00 0.00 66 1016.9
20260505150229 19 320 0.0 0.0 0.00 0.00 0.00 70 1016.9
20260505140310 16 283 0.0 0.0 0.00 0.00 0.00 77 1017.4